{"data":{"norad_id":43186,"epoch":"2026-05-24T17:00:37.264896Z","epoch_age_seconds":103389,"freshness":"FRESH","line1":"1 43186U 18014G   26144.70876464  .00003848  00000+0  20128-3 0  9993","line2":"2 43186  97.5379  49.6478 0010117  98.1552 262.0828 15.16410934455200","mean_motion":15.16410934,"eccentricity":0.0010117,"inclination_deg":97.5379,"raan_deg":49.6478,"arg_perigee_deg":98.1552,"mean_anomaly_deg":262.0828,"bstar":0.00020128,"rev_number":45520,"period_min":94.961066800116,"perigee_km":509.72290177215,"apogee_km":523.67391173417,"semimajor_km":6894.8354067532,"source":"CELESTRAK","updated_at":"2026-05-25T13:37:55.789932Z"}}